Time,TemperatureF,DewpointF,PressureIn,WindDirection,WindDirectionDegrees,WindSpeedMPH,WindSpeedGustMPH,Humidity,HourlyPrecipIn,Conditions,Clouds,dailyrainin,SoftwareType,DateUTC
2013-03-05 00:00:00,33.1,17.8,29.22,North,5,11.0,21.0,53,0.00,,---,0.00,VWS V12.08,2013-03-05 05:00:00,
2013-03-05 00:01:00,32.9,17.7,29.22,ENE,59,2.0,21.0,53,0.00,,---,0.00,VWS V12.08,2013-03-05 05:01:00,
2013-03-05 00:02:00,32.9,17.7,29.22,NNE,18,0.0,21.0,53,0.00,,---,0.00,VWS V12.08,2013-03-05 05:02:00,
2013-03-05 00:05:00,33.2,17.9,29.22,NNE,32,0.0,21.0,53,0.00,,---,0.00,VWS V12.08,2013-03-05 05:05:00,
2013-03-05 00:10:00,33.1,17.8,29.22,North,355,4.0,21.0,53,0.00,,---,0.00,VWS V12.08,2013-03-05 05:10:00,
2013-03-05 00:15:00,33.2,17.9,29.22,North,360,1.0,21.0,53,0.00,,---,0.00,VWS V12.08,2013-03-05 05:15:00,
2013-03-05 00:20:00,33.2,17.9,29.22,North,5,7.0,21.0,53,0.00,,---,0.00,VWS V12.08,2013-03-05 05:20:00,
2013-03-05 00:25:00,33.4,18.1,29.22,ENE,59,1.0,21.0,53,0.00,,---,0.00,VWS V12.08,2013-03-05 05:25:00,
2013-03-05 00:30:00,33.8,18.5,29.22,West,279,11.0,11.0,53,0.00,,---,0.00,VWS V12.08,2013-03-05 05:30:00,
2013-03-05 00:35:00,33.4,18.1,29.22,WSW,240,3.0,25.0,53,0.00,,---,0.00,VWS V12.08,2013-03-05 05:35:00,
2013-03-05 00:40:00,33.4,18.1,29.22,NNE,21,2.0,25.0,53,0.00,,---,0.00,VWS V12.08,2013-03-05 05:40:00,
2013-03-05 00:45:00,33.4,18.1,29.23,North,5,3.0,25.0,53,0.00,,---,0.00,VWS V12.08,2013-03-05 05:45:00,
2013-03-05 00:50:00,33.4,18.1,29.23,WNW,288,4.0,25.0,53,0.00,,---,0.00,VWS V12.08,2013-03-05 05:50:00,
2013-03-05 00:55:00,33.1,17.8,29.23,WSW,242,4.0,25.0,53,0.00,,---,0.00,VWS V12.08,2013-03-05 05:55:00,
2013-03-05 01:00:00,33.4,18.1,29.23,WSW,258,1.0,4.0,53,0.00,,---,0.00,VWS V12.08,2013-03-05 06:00:00,
2013-03-05 01:05:00,33.4,18.1,29.23,North,5,3.0,17.0,53,0.00,,---,0.00,VWS V12.08,2013-03-05 06:05:00,
2013-03-05 01:10:00,33.2,17.9,29.23,SW,227,0.0,18.0,53,0.00,,---,0.00,VWS V12.08,2013-03-05 06:10:00,
2013-03-05 01:15:00,33.2,18.4,29.24,North,360,9.0,18.0,54,0.00,,---,0.00,VWS V12.08,2013-03-05 06:15:00,
2013-03-05 01:20:00,33.1,18.3,29.24,North,360,6.0,18.0,54,0.00,,---,0.00,VWS V12.08,2013-03-05 06:20:00,
2013-03-05 01:25:00,32.9,18.5,29.24,North,360,3.0,20.0,55,0.00,,---,0.00,VWS V12.08,2013-03-05 06:25:00,
2013-03-05 01:30:00,32.9,18.5,29.24,NW,313,11.0,11.0,55,0.00,,---,0.00,VWS V12.08,2013-03-05 06:30:00,
2013-03-05 01:35:00,32.9,18.5,29.24,North,5,11.0,18.0,55,0.00,,---,0.00,VWS V12.08,2013-03-05 06:35:00,
2013-03-05 01:40:00,32.7,18.3,29.24,North,9,13.0,18.0,55,0.00,,---,0.00,VWS V12.08,2013-03-05 06:40:00,
2013-03-05 01:45:00,32.9,18.5,29.24,NNE,16,17.0,19.0,55,0.00,,---,0.00,VWS V12.08,2013-03-05 06:45:00,
2013-03-05 01:50:00,32.9,18.5,29.24,NW,306,0.0,19.0,55,0.00,,---,0.00,VWS V12.08,2013-03-05 06:50:00,
2013-03-05 01:55:00,33.1,18.7,29.24,North,5,3.0,22.0,55,0.00,,---,0.00,VWS V12.08,2013-03-05 06:55:00,
2013-03-05 02:00:00,33.1,18.7,29.24,North,5,0.0,21.0,55,0.00,,---,0.00,VWS V12.08,2013-03-05 07:00:00,
2013-03-05 02:05:00,33.1,18.7,29.24,NNE,26,1.0,21.0,55,0.00,,---,0.00,VWS V12.08,2013-03-05 07:05:00,
2013-03-05 02:10:00,33.1,19.1,29.24,NNE,30,5.0,21.0,56,0.00,,---,0.00,VWS V12.08,2013-03-05 07:10:00,
2013-03-05 02:15:00,33.1,19.1,29.24,SSE,166,0.0,21.0,56,0.00,,---,0.00,VWS V12.08,2013-03-05 07:15:00,
2013-03-05 02:20:00,33.1,18.7,29.24,North,360,10.0,21.0,55,0.00,,---,0.00,VWS V12.08,2013-03-05 07:20:00,
2013-03-05 02:25:00,32.9,18.9,29.24,NW,313,0.0,21.0,56,0.00,,---,0.00,VWS V12.08,2013-03-05 07:25:00,
2013-03-05 02:30:00,33.1,19.1,29.24,North,5,4.0,10.0,56,0.00,,---,0.00,VWS V12.08,2013-03-05 07:30:00,
2013-03-05 02:35:00,33.1,18.7,29.24,North,5,8.0,13.0,55,0.00,,---,0.00,VWS V12.08,2013-03-05 07:35:00,
2013-03-05 02:40:00,32.9,18.9,29.24,North,355,0.0,13.0,56,0.00,,---,0.00,VWS V12.08,2013-03-05 07:40:00,
2013-03-05 02:45:00,32.9,18.9,29.24,NNE,18,2.0,14.0,56,0.00,,---,0.00,VWS V12.08,2013-03-05 07:45:00,
2013-03-05 02:50:00,32.9,18.9,29.24,North,355,15.0,15.0,56,0.00,,---,0.00,VWS V12.08,2013-03-05 07:50:00,
2013-03-05 02:55:00,32.7,18.8,29.24,NNE,13,9.0,21.0,56,0.00,,---,0.00,VWS V12.08,2013-03-05 07:55:00,
2013-03-05 03:00:00,32.7,19.2,29.24,ESE,115,2.0,13.0,57,0.00,,---,0.00,VWS V12.08,2013-03-05 08:00:00,
2013-03-05 03:05:00,32.5,19.0,29.24,East,90,2.0,18.0,57,0.00,,---,0.00,VWS V12.08,2013-03-05 08:05:00,
2013-03-05 03:10:00,32.5,19.0,29.24,NW,318,5.0,22.0,57,0.00,,---,0.00,VWS V12.08,2013-03-05 08:10:00,
2013-03-05 03:15:00,32.5,19.0,29.24,West,277,7.0,22.0,57,0.00,,---,0.00,VWS V12.08,2013-03-05 08:15:00,
2013-03-05 03:20:00,32.5,19.0,29.24,ENE,78,2.0,22.0,57,0.00,,---,0.00,VWS V12.08,2013-03-05 08:20:00,
2013-03-05 03:25:00,32.8,19.3,29.24,NW,306,11.0,22.0,57,0.00,,---,0.00,VWS V12.08,2013-03-05 08:25:00,
2013-03-05 03:30:00,32.5,19.0,29.24,North,355,11.0,11.0,57,0.00,,---,0.00,VWS V12.08,2013-03-05 08:30:00,
2013-03-05 03:35:00,32.5,19.0,29.24,NW,326,10.0,17.0,57,0.00,,---,0.00,VWS V12.08,2013-03-05 08:35:00,
2013-03-05 03:40:00,32.7,19.2,29.24,NNE,28,0.0,17.0,57,0.00,,---,0.00,VWS V12.08,2013-03-05 08:40:00,
2013-03-05 03:45:00,32.9,19.4,29.24,NNE,13,2.0,17.0,57,0.00,,---,0.00,VWS V12.08,2013-03-05 08:45:00,
2013-03-05 03:50:00,32.7,19.2,29.24,WSW,243,2.0,17.0,57,0.00,,---,0.00,VWS V12.08,2013-03-05 08:50:00,
2013-03-05 03:55:00,32.7,19.2,29.24,North,5,7.0,17.0,57,0.00,,---,0.00,VWS V12.08,2013-03-05 08:55:00,
2013-03-05 04:00:00,32.7,19.2,29.25,NE,35,0.0,16.0,57,0.00,,---,0.00,VWS V12.08,2013-03-05 09:00:00,
2013-03-05 04:05:00,32.5,19.0,29.25,NNW,329,3.0,21.0,57,0.00,,---,0.00,VWS V12.08,2013-03-05 09:05:00,
2013-03-05 04:10:00,32.5,19.0,29.25,NE,35,0.0,21.0,57,0.00,,---,0.00,VWS V12.08,2013-03-05 09:10:00,
2013-03-05 04:15:00,32.5,19.4,29.25,NNE,30,4.0,21.0,58,0.00,,---,0.00,VWS V12.08,2013-03-05 09:15:00,
2013-03-05 04:20:00,32.5,19.4,29.25,NW,316,9.0,21.0,58,0.00,,---,0.00,VWS V12.08,2013-03-05 09:20:00,
2013-03-05 04:25:00,32.4,19.3,29.25,NNW,330,3.0,21.0,58,0.00,,---,0.00,VWS V12.08,2013-03-05 09:25:00,
2013-03-05 04:30:00,32.5,19.4,29.25,NW,305,0.0,14.0,58,0.00,,---,0.00,VWS V12.08,2013-03-05 09:30:00,
2013-03-05 04:35:00,32.5,19.4,29.25,North,355,10.0,14.0,58,0.00,,---,0.00,VWS V12.08,2013-03-05 09:35:00,
2013-03-05 04:40:00,32.5,19.4,29.25,NNE,30,6.0,14.0,58,0.00,,---,0.00,VWS V12.08,2013-03-05 09:40:00,
2013-03-05 04:45:00,32.4,19.3,29.26,NW,311,16.0,20.0,58,0.00,,---,0.00,VWS V12.08,2013-03-05 09:45:00,
2013-03-05 04:50:00,32.5,19.4,29.26,North,5,10.0,20.0,58,0.00,,---,0.00,VWS V12.08,2013-03-05 09:50:00,
2013-03-05 04:55:00,32.4,19.7,29.26,East,79,0.0,20.0,59,0.00,,---,0.00,VWS V12.08,2013-03-05 09:55:00,
2013-03-05 05:00:00,32.7,19.6,29.26,North,11,2.0,9.0,58,0.00,,---,0.00,VWS V12.08,2013-03-05 10:00:00,
2013-03-05 05:05:00,32.7,19.6,29.26,NNE,22,16.0,17.0,58,0.00,,---,0.00,VWS V12.08,2013-03-05 10:05:00,
2013-03-05 05:10:00,32.4,19.3,29.26,NNE,33,2.0,17.0,58,0.00,,---,0.00,VWS V12.08,2013-03-05 10:10:00,
2013-03-05 05:15:00,32.7,19.6,29.27,East,82,0.0,17.0,58,0.00,,---,0.00,VWS V12.08,2013-03-05 10:15:00,
2013-03-05 05:20:00,32.5,19.4,29.27,NNW,330,2.0,17.0,58,0.00,,---,0.00,VWS V12.08,2013-03-05 10:20:00,
2013-03-05 05:25:00,32.5,19.4,29.27,North,5,7.0,17.0,58,0.00,,---,0.00,VWS V12.08,2013-03-05 10:25:00,
2013-03-05 05:30:00,32.4,19.7,29.27,North,360,6.0,13.0,59,0.00,,---,0.00,VWS V12.08,2013-03-05 10:30:00,
2013-03-05 05:35:00,32.4,19.7,29.27,North,9,7.0,13.0,59,0.00,,---,0.00,VWS V12.08,2013-03-05 10:35:00,
2013-03-05 05:40:00,32.2,19.5,29.27,NE,53,0.0,13.0,59,0.00,,---,0.00,VWS V12.08,2013-03-05 10:40:00,
2013-03-05 05:45:00,32.4,19.7,29.28,WNW,283,2.0,13.0,59,0.00,,---,0.00,VWS V12.08,2013-03-05 10:45:00,
2013-03-05 05:50:00,32.4,19.7,29.28,NE,39,5.0,13.0,59,0.00,,---,0.00,VWS V12.08,2013-03-05 10:50:00,
2013-03-05 05:55:00,32.5,19.4,29.28,North,355,7.0,13.0,58,0.00,,---,0.00,VWS V12.08,2013-03-05 10:55:00,
2013-03-05 06:00:00,32.4,19.7,29.29,North,9,5.0,11.0,59,0.00,,---,0.00,VWS V12.08,2013-03-05 11:00:00,
2013-03-05 06:05:00,32.7,20.0,29.29,North,360,0.0,11.0,59,0.00,,---,0.00,VWS V12.08,2013-03-05 11:05:00,
2013-03-05 06:10:00,32.4,19.7,29.29,NNW,335,6.0,11.0,59,0.00,,---,0.00,VWS V12.08,2013-03-05 11:10:00,
2013-03-05 06:15:00,32.2,19.5,29.29,North,5,5.0,13.0,59,0.00,,---,0.00,VWS V12.08,2013-03-05 11:15:00,
2013-03-05 06:20:00,32.2,19.5,29.29,NNW,333,2.0,13.0,59,0.00,,---,0.00,VWS V12.08,2013-03-05 11:20:00,
2013-03-05 06:25:00,32.1,19.4,29.29,NE,51,6.0,13.0,59,0.00,,---,0.00,VWS V12.08,2013-03-05 11:25:00,
2013-03-05 06:30:00,32.2,19.9,29.30,NW,317,0.0,10.0,60,0.00,,---,0.00,VWS V12.08,2013-03-05 11:30:00,
2013-03-05 06:35:00,32.2,19.9,29.30,North,9,1.0,13.0,60,0.00,,---,0.00,VWS V12.08,2013-03-05 11:35:00,
2013-03-05 06:40:00,32.4,20.1,29.30,North,5,1.0,13.0,60,0.00,,---,0.00,VWS V12.08,2013-03-05 11:40:00,
2013-03-05 06:45:00,32.4,20.1,29.30,NNW,332,5.0,13.0,60,0.00,,---,0.00,VWS V12.08,2013-03-05 11:45:00,
2013-03-05 06:50:00,32.4,20.1,29.30,North,360,0.0,13.0,60,0.00,,---,0.00,VWS V12.08,2013-03-05 11:50:00,
2013-03-05 06:55:00,32.7,20.4,29.30,NW,323,3.0,13.0,60,0.00,,---,0.00,VWS V12.08,2013-03-05 11:55:00,
2013-03-05 07:00:00,32.7,20.4,29.31,North,5,0.0,4.0,60,0.00,,---,0.00,VWS V12.08,2013-03-05 12:00:00,
2013-03-05 07:05:00,32.7,20.0,29.31,NNW,330,4.0,6.0,59,0.00,,---,0.00,VWS V12.08,2013-03-05 12:05:00,
2013-03-05 07:10:00,32.7,20.0,29.31,North,360,0.0,9.0,59,0.00,,---,0.00,VWS V12.08,2013-03-05 12:10:00,
2013-03-05 07:15:00,32.7,20.0,29.31,NW,317,0.0,10.0,59,0.00,,---,0.00,VWS V12.08,2013-03-05 12:15:00,
2013-03-05 07:20:00,32.8,20.1,29.31,North,5,4.0,10.0,59,0.00,,---,0.00,VWS V12.08,2013-03-05 12:20:00,
2013-03-05 07:25:00,32.9,20.2,29.31,NNE,22,6.0,12.0,59,0.00,,---,0.00,VWS V12.08,2013-03-05 12:25:00,
2013-03-05 07:30:00,33.5,20.3,29.32,North,360,0.0,4.0,58,0.00,,---,0.00,VWS V12.08,2013-03-05 12:30:00,
2013-03-05 07:35:00,34.3,20.7,29.32,WNW,300,9.0,9.0,57,0.00,,---,0.00,VWS V12.08,2013-03-05 12:35:00,
2013-03-05 07:40:00,34.0,20.4,29.32,NW,317,0.0,13.0,57,0.00,,---,0.00,VWS V12.08,2013-03-05 12:40:00,
2013-03-05 07:45:00,34.1,20.5,29.32,WNW,303,0.0,13.0,57,0.00,,---,0.00,VWS V12.08,2013-03-05 12:45:00,
2013-03-05 07:50:00,34.4,20.3,29.32,East,93,0.0,13.0,56,0.00,,---,0.00,VWS V12.08,2013-03-05 12:50:00,
2013-03-05 07:55:00,34.1,20.5,29.32,NNE,26,0.0,13.0,57,0.00,,---,0.00,VWS V12.08,2013-03-05 12:55:00,
2013-03-05 08:00:00,34.6,20.5,29.33,NNW,329,4.0,8.0,56,0.00,,---,0.00,VWS V12.08,2013-03-05 13:00:00,
2013-03-05 08:05:00,34.7,20.2,29.33,NE,39,0.0,8.0,55,0.00,,---,0.00,VWS V12.08,2013-03-05 13:05:00,
2013-03-05 08:10:00,35.0,20.0,29.33,NE,42,2.0,9.0,54,0.00,,---,0.00,VWS V12.08,2013-03-05 13:10:00,
2013-03-05 08:15:00,34.4,19.9,29.33,NNW,327,0.0,9.0,55,0.00,,---,0.00,VWS V12.08,2013-03-05 13:15:00,
2013-03-05 08:20:00,34.3,20.7,29.33,WNW,298,2.0,11.0,57,0.00,,---,0.00,VWS V12.08,2013-03-05 13:20:00,
2013-03-05 08:25:00,35.3,20.8,29.33,North,5,2.0,11.0,55,0.00,,---,0.00,VWS V12.08,2013-03-05 13:25:00,
2013-03-05 08:30:00,35.9,20.9,29.33,ENE,63,0.0,10.0,54,0.00,,---,0.00,VWS V12.08,2013-03-05 13:30:00,
2013-03-05 08:35:00,35.5,20.1,29.33,WNW,293,0.0,12.0,53,0.00,,---,0.00,VWS V12.08,2013-03-05 13:35:00,
2013-03-05 08:40:00,35.2,19.8,29.33,East,81,0.0,16.0,53,0.00,,---,0.00,VWS V12.08,2013-03-05 13:40:00,
2013-03-05 08:45:00,35.5,20.1,29.33,North,350,6.0,16.0,53,0.00,,---,0.00,VWS V12.08,2013-03-05 13:45:00,
2013-03-05 08:50:00,35.5,21.0,29.33,ENE,61,1.0,16.0,55,0.00,,---,0.00,VWS V12.08,2013-03-05 13:50:00,
2013-03-05 08:55:00,35.9,20.0,29.33,NNE,13,2.0,16.0,52,0.00,,---,0.00,VWS V12.08,2013-03-05 13:55:00,
2013-03-05 09:00:00,36.2,20.7,29.33,NNW,330,0.0,4.0,53,0.00,,---,0.00,VWS V12.08,2013-03-05 14:00:00,
2013-03-05 09:05:00,36.9,20.0,29.33,NW,323,2.0,11.0,50,0.00,,---,0.00,VWS V12.08,2013-03-05 14:05:00,
2013-03-05 09:10:00,36.9,20.5,29.33,NNW,332,10.0,11.0,51,0.00,,---,0.00,VWS V12.08,2013-03-05 14:10:00,
2013-03-05 09:15:00,36.8,20.8,29.33,North,355,0.0,11.0,52,0.00,,---,0.00,VWS V12.08,2013-03-05 14:15:00,
2013-03-05 09:20:00,37.9,20.5,29.33,ENE,65,0.0,11.0,49,0.00,,---,0.00,VWS V12.08,2013-03-05 14:20:00,
2013-03-05 09:25:00,38.3,20.4,29.33,WNW,288,1.0,13.0,48,0.00,,---,0.00,VWS V12.08,2013-03-05 14:25:00,
2013-03-05 09:30:00,38.8,20.3,29.33,NNW,327,7.0,9.0,47,0.00,,---,0.00,VWS V12.08,2013-03-05 14:30:00,
2013-03-05 09:35:00,39.2,20.2,29.33,ENE,68,2.0,9.0,46,0.00,,---,0.00,VWS V12.08,2013-03-05 14:35:00,
2013-03-05 09:40:00,38.2,20.2,29.33,NNW,331,10.0,18.0,48,0.00,,---,0.00,VWS V12.08,2013-03-05 14:40:00,
2013-03-05 09:45:00,38.6,20.6,29.33,ESE,123,0.0,18.0,48,0.00,,---,0.00,VWS V12.08,2013-03-05 14:45:00,
2013-03-05 09:50:00,38.8,20.3,29.33,North,360,6.0,18.0,47,0.00,,---,0.00,VWS V12.08,2013-03-05 14:50:00,
2013-03-05 09:55:00,38.3,20.4,29.33,North,351,0.0,18.0,48,0.00,,---,0.00,VWS V12.08,2013-03-05 14:55:00,
2013-03-05 10:00:00,38.8,21.3,29.32,North,360,0.0,6.0,49,0.00,,---,0.00,VWS V12.08,2013-03-05 15:00:00,
2013-03-05 10:05:00,39.2,21.2,29.32,WSW,246,2.0,13.0,48,0.00,,---,0.00,VWS V12.08,2013-03-05 15:05:00,
2013-03-05 10:10:00,39.6,20.5,29.32,NW,304,6.0,13.0,46,0.00,,---,0.00,VWS V12.08,2013-03-05 15:10:00,
2013-03-05 10:15:00,38.8,20.8,29.32,North,5,2.0,14.0,48,0.00,,---,0.00,VWS V12.08,2013-03-05 15:15:00,
2013-03-05 10:20:00,39.5,21.5,29.32,NNE,19,1.0,14.0,48,0.00,,---,0.00,VWS V12.08,2013-03-05 15:20:00,
2013-03-05 10:25:00,40.1,21.0,29.32,WNW,297,0.0,14.0,46,0.00,,---,0.00,VWS V12.08,2013-03-05 15:25:00,
2013-03-05 10:30:00,40.2,21.1,29.32,North,360,9.0,9.0,46,0.00,,---,0.00,VWS V12.08,2013-03-05 15:30:00,
2013-03-05 10:35:00,40.8,21.6,29.32,North,360,3.0,10.0,46,0.00,,---,0.00,VWS V12.08,2013-03-05 15:35:00,
2013-03-05 10:40:00,42.2,21.3,29.32,NE,48,1.0,10.0,43,0.00,,---,0.00,VWS V12.08,2013-03-05 15:40:00,
2013-03-05 10:45:00,42.9,21.4,29.31,North,360,2.0,10.0,42,0.00,,---,0.00,VWS V12.08,2013-03-05 15:45:00,
2013-03-05 10:50:00,41.3,21.0,29.31,North,5,6.0,10.0,44,0.00,,---,0.00,VWS V12.08,2013-03-05 15:50:00,
2013-03-05 10:55:00,40.2,21.1,29.31,NNE,15,6.0,11.0,46,0.00,,---,0.00,VWS V12.08,2013-03-05 15:55:00,
2013-03-05 11:00:00,40.2,22.1,29.31,NE,35,5.0,5.0,48,0.00,,---,0.00,VWS V12.08,2013-03-05 16:00:00,
2013-03-05 11:05:00,41.3,22.1,29.31,NW,326,2.0,7.0,46,0.00,,---,0.00,VWS V12.08,2013-03-05 16:05:00,
2013-03-05 11:10:00,42.8,22.4,29.31,NW,306,0.0,13.0,44,0.00,,---,0.00,VWS V12.08,2013-03-05 16:10:00,
2013-03-05 11:15:00,43.5,21.4,29.31,North,5,0.0,13.0,41,0.00,,---,0.00,VWS V12.08,2013-03-05 16:15:00,
2013-03-05 11:20:00,43.8,21.6,29.31,NNE,25,0.0,13.0,41,0.00,,---,0.00,VWS V12.08,2013-03-05 16:20:00,
2013-03-05 11:25:00,44.8,22.0,29.31,North,5,0.0,13.0,40,0.00,,---,0.00,VWS V12.08,2013-03-05 16:25:00,
2013-03-05 11:30:00,45.2,21.7,29.31,NNE,24,4.0,6.0,39,0.00,,---,0.00,VWS V12.08,2013-03-05 16:30:00,
2013-03-05 11:35:00,43.9,21.7,29.31,North,5,0.0,10.0,41,0.00,,---,0.00,VWS V12.08,2013-03-05 16:35:00,
2013-03-05 11:40:00,44.1,21.9,29.31,North,11,4.0,10.0,41,0.00,,---,0.00,VWS V12.08,2013-03-05 16:40:00,
2013-03-05 11:45:00,43.6,21.5,29.31,NNE,18,3.0,10.0,41,0.00,,---,0.00,VWS V12.08,2013-03-05 16:45:00,
2013-03-05 11:50:00,43.6,22.6,29.31,NNE,24,0.0,10.0,43,0.00,,---,0.00,VWS V12.08,2013-03-05 16:50:00,
2013-03-05 11:55:00,44.2,22.0,29.31,North,5,0.0,10.0,41,0.00,,---,0.00,VWS V12.08,2013-03-05 16:55:00,
2013-03-05 12:00:00,44.6,22.4,29.30,North,5,5.0,5.0,41,0.00,,---,0.00,VWS V12.08,2013-03-05 17:00:00,
2013-03-05 12:05:00,44.8,22.0,29.30,East,90,3.0,12.0,40,0.00,,---,0.00,VWS V12.08,2013-03-05 17:05:00,
2013-03-05 12:10:00,45.1,22.2,29.30,NE,50,2.0,12.0,40,0.00,,---,0.00,VWS V12.08,2013-03-05 17:10:00,
2013-03-05 12:15:00,46.7,22.5,29.30,North,360,6.0,12.0,38,0.00,,---,0.00,VWS V12.08,2013-03-05 17:15:00,
2013-03-05 12:20:00,47.7,22.1,29.30,ENE,62,0.0,12.0,36,0.00,,---,0.00,VWS V12.08,2013-03-05 17:20:00,
2013-03-05 12:25:00,48.2,22.5,29.30,NNE,22,8.0,12.0,36,0.00,,---,0.00,VWS V12.08,2013-03-05 17:25:00,
2013-03-05 12:30:00,46.5,22.3,29.30,North,355,7.0,7.0,38,0.00,,---,0.00,VWS V12.08,2013-03-05 17:30:00,
2013-03-05 12:35:00,46.4,23.4,29.30,North,360,0.0,8.0,40,0.00,,---,0.00,VWS V12.08,2013-03-05 17:35:00,
2013-03-05 12:40:00,47.4,23.1,29.30,North,360,2.0,9.0,38,0.00,,---,0.00,VWS V12.08,2013-03-05 17:40:00,
2013-03-05 12:45:00,47.0,21.5,29.30,NNE,19,2.0,9.0,36,0.00,,---,0.00,VWS V12.08,2013-03-05 17:45:00,
2013-03-05 12:50:00,46.0,23.0,29.30,North,350,1.0,9.0,40,0.00,,---,0.00,VWS V12.08,2013-03-05 17:50:00,
2013-03-05 12:55:00,46.0,22.5,29.30,North,9,0.0,9.0,39,0.00,,---,0.00,VWS V12.08,2013-03-05 17:55:00,
2013-03-05 13:01:00,47.0,22.1,29.29,NNE,14,1.0,4.0,37,0.00,,---,0.00,VWS V12.08,2013-03-05 18:01:00,
2013-03-05 13:06:00,47.7,22.1,29.29,NNE,12,5.0,6.0,36,0.00,,---,0.00,VWS V12.08,2013-03-05 18:06:00,
2013-03-05 13:11:00,47.7,22.1,29.29,ESE,117,2.0,6.0,36,0.00,,---,0.00,VWS V12.08,2013-03-05 18:11:00,
2013-03-05 13:16:00,48.5,22.1,29.29,WNW,284,0.0,6.0,35,0.00,,---,0.00,VWS V12.08,2013-03-05 18:16:00,
2013-03-05 13:21:00,48.8,22.4,29.29,North,360,6.0,8.0,35,0.00,,---,0.00,VWS V12.08,2013-03-05 18:21:00,
2013-03-05 13:26:00,48.2,21.9,29.29,NNE,12,0.0,8.0,35,0.00,,---,0.00,VWS V12.08,2013-03-05 18:26:00,
2013-03-05 13:31:00,47.9,21.6,29.30,NE,36,3.0,10.0,35,0.00,,---,0.00,VWS V12.08,2013-03-05 18:31:00,
2013-03-05 13:36:00,48.0,22.3,29.30,North,5,8.0,11.0,36,0.00,,---,0.00,VWS V12.08,2013-03-05 18:36:00,
2013-03-05 13:41:00,47.6,22.6,29.30,North,5,0.0,11.0,37,0.00,,---,0.00,VWS V12.08,2013-03-05 18:41:00,
2013-03-05 13:46:00,48.0,22.3,29.30,NNE,19,0.0,11.0,36,0.00,,---,0.00,VWS V12.08,2013-03-05 18:46:00,
2013-03-05 13:51:00,48.9,22.5,29.30,SE,130,0.0,11.0,35,0.00,,---,0.00,VWS V12.08,2013-03-05 18:51:00,
2013-03-05 13:56:00,49.1,22.0,29.30,NNE,28,1.0,11.0,34,0.00,,---,0.00,VWS V12.08,2013-03-05 18:56:00,
2013-03-05 14:01:00,49.1,22.0,29.30,SW,220,0.0,6.0,34,0.00,,---,0.00,VWS V12.08,2013-03-05 19:01:00,
2013-03-05 14:06:00,49.2,22.0,29.30,NNW,331,0.0,7.0,34,0.00,,---,0.00,VWS V12.08,2013-03-05 19:06:00,
2013-03-05 14:12:00,48.5,22.1,29.30,NNE,29,0.0,8.0,35,0.00,,---,0.00,VWS V12.08,2013-03-05 19:12:00,
2013-03-05 14:17:00,48.8,22.4,29.30,South,171,0.0,8.0,35,0.00,,---,0.00,VWS V12.08,2013-03-05 19:17:00,
2013-03-05 14:22:00,49.6,22.4,29.30,North,360,7.0,8.0,34,0.00,,---,0.00,VWS V12.08,2013-03-05 19:22:00,
2013-03-05 14:27:00,48.2,22.5,29.30,NE,34,0.0,8.0,36,0.00,,---,0.00,VWS V12.08,2013-03-05 19:27:00,
2013-03-05 14:32:00,48.5,22.1,29.30,NNE,21,5.0,7.0,35,0.00,,---,0.00,VWS V12.08,2013-03-05 19:32:00,
2013-03-05 14:37:00,49.1,22.6,29.30,South,190,0.0,7.0,35,0.00,,---,0.00,VWS V12.08,2013-03-05 19:37:00,
2013-03-05 14:42:00,49.9,22.0,29.30,North,360,4.0,7.0,33,0.00,,---,0.00,VWS V12.08,2013-03-05 19:42:00,
2013-03-05 14:47:00,49.5,22.3,29.30,ENE,65,0.0,10.0,34,0.00,,---,0.00,VWS V12.08,2013-03-05 19:47:00,
2013-03-05 14:52:00,49.8,21.9,29.30,NE,40,3.0,10.0,33,0.00,,---,0.00,VWS V12.08,2013-03-05 19:52:00,
2013-03-05 14:57:00,49.8,21.9,29.30,NNE,26,4.0,10.0,33,0.00,,---,0.00,VWS V12.08,2013-03-05 19:57:00,
2013-03-05 15:02:00,49.4,22.2,29.30,NNE,32,0.0,6.0,34,0.00,,---,0.00,VWS V12.08,2013-03-05 20:02:00,
2013-03-05 15:07:00,49.4,22.2,29.30,NNE,23,6.0,12.0,34,0.00,,---,0.00,VWS V12.08,2013-03-05 20:07:00,
2013-03-05 15:12:00,48.5,21.4,29.30,NNE,13,11.0,12.0,34,0.00,,---,0.00,VWS V12.08,2013-03-05 20:12:00,
2013-03-05 15:17:00,48.6,22.2,29.30,SSE,163,0.0,12.0,35,0.00,,---,0.00,VWS V12.08,2013-03-05 20:17:00,
2013-03-05 15:22:00,49.2,22.0,29.30,NE,36,5.0,12.0,34,0.00,,---,0.00,VWS V12.08,2013-03-05 20:22:00,
2013-03-05 15:27:00,49.2,21.3,29.30,WSW,248,0.0,12.0,33,0.00,,---,0.00,VWS V12.08,2013-03-05 20:27:00,
2013-03-05 15:32:00,49.8,20.4,29.30,North,355,0.0,4.0,31,0.00,,---,0.00,VWS V12.08,2013-03-05 20:32:00,
2013-03-05 15:37:00,50.4,20.9,29.30,North,355,0.0,4.0,31,0.00,,---,0.00,VWS V12.08,2013-03-05 20:37:00,
2013-03-05 15:42:00,49.5,21.6,29.30,North,360,2.0,9.0,33,0.00,,---,0.00,VWS V12.08,2013-03-05 20:42:00,
2013-03-05 15:47:00,48.3,19.8,29.29,NNE,18,0.0,10.0,32,0.00,,---,0.00,VWS V12.08,2013-03-05 20:47:00,
2013-03-05 15:52:00,49.1,21.3,29.29,NE,35,0.0,10.0,33,0.00,,---,0.00,VWS V12.08,2013-03-05 20:52:00,
2013-03-05 15:57:00,50.2,20.8,29.29,NE,53,0.0,10.0,31,0.00,,---,0.00,VWS V12.08,2013-03-05 20:57:00,
2013-03-05 16:02:00,51.0,20.7,29.28,NNE,22,2.0,5.0,30,0.00,,---,0.00,VWS V12.08,2013-03-05 21:02:00,
2013-03-05 16:07:00,51.1,20.0,29.28,NNE,32,0.0,10.0,29,0.00,,---,0.00,VWS V12.08,2013-03-05 21:07:00,
2013-03-05 16:12:00,51.4,20.2,29.28,South,170,3.0,10.0,29,0.00,,---,0.00,VWS V12.08,2013-03-05 21:12:00,
2013-03-05 16:17:00,51.9,20.7,29.28,SSW,206,1.0,10.0,29,0.00,,---,0.00,VWS V12.08,2013-03-05 21:17:00,
2013-03-05 16:22:00,51.3,20.1,29.28,NNW,333,0.0,10.0,29,0.00,,---,0.00,VWS V12.08,2013-03-05 21:22:00,
2013-03-05 16:27:00,50.8,20.5,29.28,NNW,332,0.0,10.0,30,0.00,,---,0.00,VWS V12.08,2013-03-05 21:27:00,
2013-03-05 16:32:00,50.4,20.9,29.28,North,360,0.0,3.0,31,0.00,,---,0.00,VWS V12.08,2013-03-05 21:32:00,
2013-03-05 16:37:00,49.6,20.2,29.28,NE,40,4.0,6.0,31,0.00,,---,0.00,VWS V12.08,2013-03-05 21:37:00,
2013-03-05 16:42:00,49.1,20.5,29.28,NE,46,0.0,6.0,32,0.00,,---,0.00,VWS V12.08,2013-03-05 21:42:00,
2013-03-05 16:47:00,49.8,21.1,29.28,ENE,57,2.0,6.0,32,0.00,,---,0.00,VWS V12.08,2013-03-05 21:47:00,
2013-03-05 16:52:00,49.2,20.6,29.28,ENE,57,0.0,7.0,32,0.00,,---,0.00,VWS V12.08,2013-03-05 21:52:00,
2013-03-05 16:57:00,49.2,20.6,29.28,East,95,3.0,7.0,32,0.00,,---,0.00,VWS V12.08,2013-03-05 21:57:00,
2013-03-05 17:02:00,48.2,21.2,29.29,NE,35,1.0,9.0,34,0.00,,---,0.00,VWS V12.08,2013-03-05 22:02:00,
2013-03-05 17:07:00,48.0,20.3,29.29,NE,34,0.0,9.0,33,0.00,,---,0.00,VWS V12.08,2013-03-05 22:07:00,
2013-03-05 17:12:00,48.3,21.2,29.29,SE,143,1.0,9.0,34,0.00,,---,0.00,VWS V12.08,2013-03-05 22:12:00,
2013-03-05 17:17:00,48.5,20.0,29.29,North,5,5.0,9.0,32,0.00,,---,0.00,VWS V12.08,2013-03-05 22:17:00,
2013-03-05 17:22:00,47.9,20.2,29.29,North,5,0.0,10.0,33,0.00,,---,0.00,VWS V12.08,2013-03-05 22:22:00,
2013-03-05 17:28:00,48.0,21.0,29.29,North,5,4.0,10.0,34,0.00,,---,0.00,VWS V12.08,2013-03-05 22:28:00,
2013-03-05 17:33:00,47.6,21.3,29.29,North,5,0.0,6.0,35,0.00,,---,0.00,VWS V12.08,2013-03-05 22:33:00,
2013-03-05 17:38:00,48.0,22.3,29.29,North,5,0.0,6.0,36,0.00,,---,0.00,VWS V12.08,2013-03-05 22:38:00,
2013-03-05 17:43:00,48.3,21.9,29.30,NNE,13,0.0,6.0,35,0.00,,---,0.00,VWS V12.08,2013-03-05 22:43:00,
2013-03-05 17:48:00,48.0,22.3,29.30,SSW,198,0.0,6.0,36,0.00,,---,0.00,VWS V12.08,2013-03-05 22:48:00,
2013-03-05 17:53:00,48.0,22.3,29.30,SSW,200,0.0,6.0,36,0.00,,---,0.00,VWS V12.08,2013-03-05 22:53:00,
2013-03-05 17:58:00,48.2,22.5,29.31,SSW,194,0.0,6.0,36,0.00,,---,0.00,VWS V12.08,2013-03-05 22:58:00,
2013-03-05 18:04:00,48.2,22.5,29.31,SW,220,2.0,2.0,36,0.00,,---,0.00,VWS V12.08,2013-03-05 23:04:00,
2013-03-05 18:09:00,47.9,22.2,29.31,SW,221,0.0,2.0,36,0.00,,---,0.00,VWS V12.08,2013-03-05 23:09:00,
2013-03-05 18:14:00,47.7,22.7,29.31,SW,222,0.0,3.0,37,0.00,,---,0.00,VWS V12.08,2013-03-05 23:14:00,
2013-03-05 18:19:00,47.9,22.9,29.31,SW,224,2.0,3.0,37,0.00,,---,0.00,VWS V12.08,2013-03-05 23:19:00,
2013-03-05 18:24:00,48.0,23.0,29.31,SW,225,0.0,3.0,37,0.00,,---,0.00,VWS V12.08,2013-03-05 23:24:00,
2013-03-05 18:29:00,48.0,23.0,29.32,SW,226,0.0,0.0,37,0.00,,---,0.00,VWS V12.08,2013-03-05 23:29:00,
2013-03-05 18:34:00,47.9,22.9,29.32,SW,227,0.0,3.0,37,0.00,,---,0.00,VWS V12.08,2013-03-05 23:34:00,
2013-03-05 18:39:00,47.9,22.9,29.32,SW,229,0.0,3.0,37,0.00,,---,0.00,VWS V12.08,2013-03-05 23:39:00,
2013-03-05 18:44:00,47.7,22.7,29.32,SW,224,0.0,4.0,37,0.00,,---,0.00,VWS V12.08,2013-03-05 23:44:00,
2013-03-05 18:49:00,47.7,23.4,29.32,SW,225,0.0,4.0,38,0.00,,---,0.00,VWS V12.08,2013-03-05 23:49:00,
2013-03-05 18:54:00,47.7,22.7,29.32,SW,227,0.0,4.0,37,0.00,,---,0.00,VWS V12.08,2013-03-05 23:54:00,
2013-03-05 18:59:00,47.6,22.6,29.32,SW,225,0.0,1.0,37,0.00,,---,0.00,VWS V12.08,2013-03-05 23:59:00,
2013-03-05 19:04:00,47.4,23.1,29.32,SW,225,0.0,4.0,38,0.00,,---,0.00,VWS V12.08,2013-03-06 00:04:00,
2013-03-05 19:09:00,47.7,22.7,29.32,SW,225,0.0,4.0,37,0.00,,---,0.00,VWS V12.08,2013-03-06 00:09:00,
2013-03-05 19:14:00,47.7,23.4,29.32,SW,227,0.0,4.0,38,0.00,,---,0.00,VWS V12.08,2013-03-06 00:14:00,
2013-03-05 19:19:00,47.9,22.9,29.32,SW,227,0.0,4.0,37,0.00,,---,0.00,VWS V12.08,2013-03-06 00:19:00,
2013-03-05 19:24:00,47.7,23.4,29.32,SW,229,0.0,4.0,38,0.00,,---,0.00,VWS V12.08,2013-03-06 00:24:00,
2013-03-05 19:29:00,47.7,22.7,29.33,SW,229,1.0,3.0,37,0.00,,---,0.00,VWS V12.08,2013-03-06 00:29:00,
2013-03-05 19:34:00,47.4,22.5,29.33,SW,235,0.0,3.0,37,0.00,,---,0.00,VWS V12.08,2013-03-06 00:34:00,
2013-03-05 19:39:00,47.4,23.1,29.33,SSW,210,2.0,3.0,38,0.00,,---,0.00,VWS V12.08,2013-03-06 00:39:00,
2013-03-05 19:44:00,47.6,22.6,29.32,SSW,211,0.0,3.0,37,0.00,,---,0.00,VWS V12.08,2013-03-06 00:44:00,
2013-03-05 19:49:00,47.4,22.5,29.32,SW,214,0.0,3.0,37,0.00,,---,0.00,VWS V12.08,2013-03-06 00:49:00,
2013-03-05 19:54:00,47.3,23.0,29.32,SW,218,2.0,4.0,38,0.00,,---,0.00,VWS V12.08,2013-03-06 00:54:00,
2013-03-05 19:59:00,47.1,22.8,29.32,SW,223,0.0,0.0,38,0.00,,---,0.00,VWS V12.08,2013-03-06 00:59:00,
2013-03-05 20:04:00,47.0,23.3,29.32,WSW,246,0.0,2.0,39,0.00,,---,0.00,VWS V12.08,2013-03-06 01:04:00,
2013-03-05 20:09:00,46.2,23.2,29.32,SSW,213,2.0,4.0,40,0.00,,---,0.00,VWS V12.08,2013-03-06 01:09:00,
2013-03-05 20:14:00,45.8,24.0,29.32,South,191,0.0,4.0,42,0.00,,---,0.00,VWS V12.08,2013-03-06 01:14:00,
2013-03-05 20:19:00,45.7,24.5,29.32,SSW,203,0.0,4.0,43,0.00,,---,0.00,VWS V12.08,2013-03-06 01:19:00,
2013-03-05 20:24:00,45.4,24.2,29.32,SE,141,4.0,5.0,43,0.00,,---,0.00,VWS V12.08,2013-03-06 01:24:00,
2013-03-05 20:29:00,44.8,24.2,29.32,SE,142,5.0,5.0,44,0.00,,---,0.00,VWS V12.08,2013-03-06 01:29:00,
2013-03-05 20:34:00,44.8,24.2,29.32,ESE,121,1.0,5.0,44,0.00,,---,0.00,VWS V12.08,2013-03-06 01:34:00,
2013-03-05 20:39:00,45.1,24.5,29.32,ESE,122,0.0,5.0,44,0.00,,---,0.00,VWS V12.08,2013-03-06 01:39:00,
2013-03-05 20:44:00,45.4,24.2,29.31,SSW,196,2.0,5.0,43,0.00,,---,0.00,VWS V12.08,2013-03-06 01:44:00,
2013-03-05 20:49:00,45.5,24.3,29.31,SSW,196,0.0,5.0,43,0.00,,---,0.00,VWS V12.08,2013-03-06 01:49:00,
2013-03-05 20:54:00,45.7,24.5,29.31,SW,224,1.0,5.0,43,0.00,,---,0.00,VWS V12.08,2013-03-06 01:54:00,
2013-03-05 20:59:00,45.8,24.6,29.32,SW,225,0.0,0.0,43,0.00,,---,0.00,VWS V12.08,2013-03-06 01:59:00,
2013-03-05 21:04:00,45.7,24.5,29.32,SSW,208,0.0,3.0,43,0.00,,---,0.00,VWS V12.08,2013-03-06 02:04:00,
2013-03-05 21:09:00,45.5,24.3,29.32,SSW,210,0.0,3.0,43,0.00,,---,0.00,VWS V12.08,2013-03-06 02:09:00,
2013-03-05 21:14:00,45.7,24.5,29.32,SW,227,0.0,5.0,43,0.00,,---,0.00,VWS V12.08,2013-03-06 02:14:00,
2013-03-05 21:19:00,45.7,24.5,29.32,South,185,0.0,5.0,43,0.00,,---,0.00,VWS V12.08,2013-03-06 02:19:00,
2013-03-05 21:24:00,45.5,24.3,29.32,South,186,0.0,5.0,43,0.00,,---,0.00,VWS V12.08,2013-03-06 02:24:00,
2013-03-05 21:29:00,45.7,24.5,29.32,SSW,209,2.0,3.0,43,0.00,,---,0.00,VWS V12.08,2013-03-06 02:29:00,
2013-03-05 21:34:00,45.7,24.5,29.32,WSW,246,2.0,3.0,43,0.00,,---,0.00,VWS V12.08,2013-03-06 02:34:00,
2013-03-05 21:39:00,45.2,23.5,29.32,SSE,150,2.0,4.0,42,0.00,,---,0.00,VWS V12.08,2013-03-06 02:39:00,
2013-03-05 21:44:00,44.9,23.8,29.33,SSE,151,0.0,6.0,43,0.00,,---,0.00,VWS V12.08,2013-03-06 02:44:00,
2013-03-05 21:49:00,44.9,23.8,29.33,SSE,155,3.0,6.0,43,0.00,,---,0.00,VWS V12.08,2013-03-06 02:49:00,
2013-03-05 21:54:00,44.5,24.0,29.33,SSE,147,0.0,6.0,44,0.00,,---,0.00,VWS V12.08,2013-03-06 02:54:00,
2013-03-05 21:59:00,44.5,24.5,29.33,SE,138,4.0,4.0,45,0.00,,---,0.00,VWS V12.08,2013-03-06 02:59:00,
2013-03-05 22:04:00,43.8,23.3,29.33,SE,135,0.0,7.0,44,0.00,,---,0.00,VWS V12.08,2013-03-06 03:04:00,
2013-03-05 22:09:00,43.3,23.4,29.33,SE,146,0.0,7.0,45,0.00,,---,0.00,VWS V12.08,2013-03-06 03:09:00,
2013-03-05 22:14:00,43.2,23.3,29.33,SSE,147,0.0,7.0,45,0.00,,---,0.00,VWS V12.08,2013-03-06 03:14:00,
2013-03-05 22:19:00,43.1,23.7,29.33,SSE,150,3.0,8.0,46,0.00,,---,0.00,VWS V12.08,2013-03-06 03:19:00,
2013-03-05 22:24:00,42.6,23.8,29.33,ESE,109,0.0,8.0,47,0.00,,---,0.00,VWS V12.08,2013-03-06 03:24:00,
2013-03-05 22:29:00,42.8,24.0,29.32,ENE,76,5.0,5.0,47,0.00,,---,0.00,VWS V12.08,2013-03-06 03:29:00,
2013-03-05 22:34:00,42.6,23.8,29.32,South,182,0.0,5.0,47,0.00,,---,0.00,VWS V12.08,2013-03-06 03:34:00,
2013-03-05 22:39:00,42.6,24.3,29.32,SE,136,4.0,5.0,48,0.00,,---,0.00,VWS V12.08,2013-03-06 03:39:00,
2013-03-05 22:44:00,42.6,23.8,29.32,SSE,148,0.0,7.0,47,0.00,,---,0.00,VWS V12.08,2013-03-06 03:44:00,
2013-03-05 22:49:00,42.6,24.3,29.32,SSE,150,0.0,7.0,48,0.00,,---,0.00,VWS V12.08,2013-03-06 03:49:00,
2013-03-05 22:54:00,43.1,24.8,29.32,SSE,167,0.0,7.0,48,0.00,,---,0.00,VWS V12.08,2013-03-06 03:54:00,
2013-03-05 22:59:00,42.9,24.6,29.32,SE,137,0.0,2.0,48,0.00,,---,0.00,VWS V12.08,2013-03-06 03:59:00,
2013-03-05 23:04:00,42.9,24.6,29.32,South,188,0.0,5.0,48,0.00,,---,0.00,VWS V12.08,2013-03-06 04:04:00,
2013-03-05 23:09:00,42.9,25.1,29.32,South,177,2.0,5.0,49,0.00,,---,0.00,VWS V12.08,2013-03-06 04:09:00,
2013-03-05 23:14:00,42.6,24.8,29.31,SE,128,0.0,7.0,49,0.00,,---,0.00,VWS V12.08,2013-03-06 04:14:00,
2013-03-05 23:19:00,42.5,24.7,29.31,SSE,148,0.0,7.0,49,0.00,,---,0.00,VWS V12.08,2013-03-06 04:19:00,
2013-03-05 23:24:00,42.5,25.2,29.31,ESE,107,0.0,7.0,50,0.00,,---,0.00,VWS V12.08,2013-03-06 04:24:00,
2013-03-05 23:29:00,42.6,25.3,29.31,ESE,116,0.0,0.0,50,0.00,,---,0.00,VWS V12.08,2013-03-06 04:29:00,
2013-03-05 23:34:00,42.8,25.5,29.31,SE,136,0.0,4.0,50,0.00,,---,0.00,VWS V12.08,2013-03-06 04:34:00,
2013-03-05 23:39:00,43.1,25.7,29.31,SE,142,0.0,4.0,50,0.00,,---,0.00,VWS V12.08,2013-03-06 04:39:00,
2013-03-05 23:44:00,43.3,25.9,29.31,SSE,160,0.0,4.0,50,0.00,,---,0.00,VWS V12.08,2013-03-06 04:44:00,
2013-03-05 23:49:00,43.8,25.9,29.31,SSW,198,0.0,4.0,49,0.00,,---,0.00,VWS V12.08,2013-03-06 04:49:00,
2013-03-05 23:54:00,43.6,26.2,29.31,SE,128,3.0,7.0,50,0.00,,---,0.00,VWS V12.08,2013-03-06 04:54:00,
2013-03-05 23:59:00,43.1,26.2,29.30,SE,135,0.0,6.0,51,0.00,,---,0.00,VWS V12.08,2013-03-06 04:59:00,